Nashville, TN

3:53 AM CDT on March 23, 2017 (GMT -0500)
Nashville International

Weather History for KBNA - December, 2011

Change the Weather History Date:

Thursday, December 8, 2011

  Actual Average Record
Temperature  
Mean Temperature 35 °F 42 °F  
Max Temperature 45 °F 51 °F 74 °F (1956)
Min Temperature 25 °F 33 °F 5 °F (1927)
Degree Days  
Heating Degree Days 30    
Month to date heating degree days 162  
Since 1 July heating degree days 788  
Cooling Degree Days 0    
Month to date cooling degree days 0  
Year to date cooling degree days 1919  
Moisture  
Dew Point 25 °F    
Average Humidity 65    
Maximum Humidity 92    
Minimum Humidity 37    
Precipitation  
Precipitation 0.00 in 0.16 in 4.46 in (1978)
Month to date precipitation 1.76 1.23  
Year to date precipitation 49.65 44.24  
Snow  
Snow 0.00 in - 3.50 in (1917)
Month to date snowfall T  
Since 1 July snowfall T  
Snow Depth 0.00 in    
Sea Level Pressure  
Sea Level Pressure 30.32 in    
Wind  
Wind Speed 2 mph (South)    
Max Wind Speed 8 mph    
Max Gust Speed 10 mph    
Visibility 9 miles    
Events Fog    
T = Trace of Precipitation, MM = Missing Value Source: NWS Daily Summary

Daily Weather History Graph

Daily Weather History Graph

Search for Another Location

Airport or City:

Trip Planner

Search our weather history database for the weather conditions in past years. The results will help you decide how hot, cold, wet, or windy it might be!

Date:

Astronomy

Dec. 08, 2011 Rise Set
Actual Time 6:44 AM CST 4:32 PM CST
Civil Twilight 6:16 AM CST 5:00 PM CST
Nautical Twilight 5:44 AM CST 5:32 PM CST
Astronomical Twilight 5:13 AM CST 6:03 PM CST
Moon 3:10 PM CST (12/8) 4:57 AM CST (12/8)
Length of Visible Light 10h 44m
Length of Day
9h 47m
Waxing Gibbous, 97% of the Moon is Illuminated
Dec 8
Waxing Gibbous
Dec 10
Full
Dec 17
Last Quarter
Dec 24
New
Jan 1
First Quarter

Hourly Weather History & Observations

Time (CST) Temp. Windchill Dew Point Humidity Pressure Visibility Wind Dir Wind Speed Gust Speed Precip Events Conditions
12:53 AM 30.9 °F - 26.1 °F 82% 30.30 in 10.0 mi Calm Calm - N/A   Clear
1:53 AM 28.0 °F - 25.0 °F 88% 30.31 in 8.0 mi Calm Calm - N/A   Clear
2:53 AM 28.9 °F - 25.0 °F 85% 30.32 in 9.0 mi Calm Calm - N/A   Clear
3:53 AM 27.0 °F 23.0 °F 25.0 °F 92% 30.33 in 5.0 mi South 3.5 mph - N/A Fog Clear
4:53 AM 26.1 °F 21.9 °F 24.1 °F 92% 30.33 in 5.0 mi South 3.5 mph - N/A Fog Clear
5:53 AM 26.1 °F 21.9 °F 24.1 °F 92% 30.32 in 5.0 mi SSE 3.5 mph - N/A Fog Clear
6:53 AM 26.1 °F 21.9 °F 23.0 °F 88% 30.35 in 5.0 mi South 3.5 mph - N/A Fog Partly Cloudy
7:53 AM 28.0 °F - 27.0 °F 96% 30.35 in 5.0 mi Calm Calm - N/A Fog Scattered Clouds
8:53 AM 33.1 °F 30.0 °F 28.9 °F 85% 30.38 in 7.0 mi SSE 3.5 mph - N/A   Scattered Clouds
9:53 AM 36.0 °F - 30.0 °F 79% 30.39 in 10.0 mi Calm Calm - N/A   Scattered Clouds
10:53 AM 39.0 °F 36.8 °F 28.9 °F 67% 30.39 in 10.0 mi Variable 3.5 mph - N/A   Mostly Cloudy
11:53 AM 43.0 °F 38.8 °F 27.0 °F 53% 30.37 in 10.0 mi South 6.9 mph - N/A   Mostly Cloudy
12:53 PM 44.1 °F 42.5 °F 24.1 °F 45% 30.34 in 10.0 mi Variable 3.5 mph - N/A   Mostly Cloudy
1:53 PM 44.1 °F 42.5 °F 21.0 °F 40% 30.31 in 10.0 mi SSE 3.5 mph - N/A   Mostly Cloudy
2:53 PM 44.6 °F 42.2 °F 21.2 °F 39% 30.28 in 10.0 mi SSW 4.6 mph - N/A   Scattered Clouds
3:53 PM 44.1 °F - 19.9 °F 38% 30.29 in 10.0 mi Calm Calm - N/A   Scattered Clouds
4:53 PM 42.1 °F - 19.0 °F 40% 30.29 in 10.0 mi Calm Calm - N/A   Scattered Clouds
5:53 PM 39.0 °F - 19.0 °F 45% 30.29 in 10.0 mi Calm Calm - N/A   Partly Cloudy
6:53 PM 35.1 °F 32.2 °F 25.0 °F 67% 30.29 in 10.0 mi South 3.5 mph - N/A   Clear
7:53 PM 32.0 °F 28.7 °F 25.0 °F 75% 30.27 in 10.0 mi South 3.5 mph - N/A   Partly Cloudy
8:53 PM 30.0 °F 25.2 °F 25.0 °F 82% 30.27 in 10.0 mi South 4.6 mph - N/A   Clear
9:53 PM 30.9 °F 27.5 °F 25.0 °F 79% 30.27 in 10.0 mi South 3.5 mph - N/A   Clear
10:53 PM 28.9 °F 23.9 °F 25.0 °F 85% 30.27 in 10.0 mi SSE 4.6 mph - N/A   Clear
11:53 PM 30.0 °F - 25.0 °F 82% 30.26 in 10.0 mi Calm Calm - N/A   Clear